Wetbulb
63.14 63.18 60.69 55.24 47.15 45.65 41.46 42.39 42.91 42.97 45.53 49.62 50.70 49.44 48.32 50.30 48.89 44.49 58.86 64.87 64.39 64.82 68.42 72.31 73.47 73.63 73.74 73.74 73.79 73.50 73.40 73.29 73.41 73.45 72.70 72.10 71.64 70.89 69.99 68.95 67.82 67.28 67.17 67.92 68.84 69.30 68.70 67.73 67.32
59.31 60.65 57.41 50.87 43.64 39.56 39.67 45.74 43.88 46.04 47.95 50.12 51.32 50.46 49.11 48.65 53.02 55.98 59.10 64.78 65.22 65.63 68.84 71.43 73.04 73.36 73.49 73.41 73.67 73.48 73.47 73.27 73.03 72.83 72.60 71.57 71.24 70.37 69.36 68.28 67.12 66.62 66.35 66.92 67.90 67.41 67.31 67.16 66.06
59.82 59.81 50.98 46.53 42.17 38.86 39.48 44.80 46.53 47.67 48.30 49.30 49.38 52.76 50.94 49.95 53.62 57.88 61.00 64.20 65.38 66.62 69.41 71.17 72.91 73.17 73.36 73.34 73.37 73.35 73.26 72.97 72.57 72.29 72.18 71.51 70.66 69.74 68.75 67.52 66.15 65.42 65.34 66.06 67.06 66.88 67.34 66.14 65.47
56.31 54.36 51.33 42.29 38.96 41.88 44.10 46.51 48.44 46.40 46.09 49.86 51.39 48.68 53.59 56.23 56.43 58.81 62.17 64.52 64.76 66.96 69.52 71.23 72.41 72.66 73.02 72.97 72.88 73.03 73.04 72.75 72.37 72.05 71.24 70.42 69.90 69.05 67.95 66.15 64.82 64.06 64.22 65.53 66.33 66.43 65.43 65.44 64.70
55.37 48.78 40.84 39.08 39.04 42.67 46.56 48.65 48.56 46.52 45.01 45.93 48.46 45.67 48.22 55.68 58.84 60.28 62.02 65.09 64.79 66.72 69.33 70.19 72.26 72.64 72.88 72.77 72.56 72.43 72.54 72.37 71.92 71.22 70.16 69.80 69.00 68.07 66.52 64.99 63.85 63.36 63.68 64.98 65.59 66.01 65.46 64.76 64.20
48.85 46.83 37.26 34.56 37.26 41.84 45.18 49.24 47.92 47.48 46.86 46.26 45.56 45.77 47.57 54.14 58.64 60.06 61.66 64.57 65.98 67.00 68.98 69.66 70.89 71.42 71.62 72.22 71.94 71.81 71.84 71.68 71.23 70.41 69.67 68.97 67.97 66.87 65.47 64.29 63.31 63.19 63.47 64.15 64.88 65.05 64.69 64.02 63.43
45.80 42.43 36.51 36.17 36.48 38.85 42.39 49.08 46.25 45.83 44.14 45.89 47.46 44.44 46.20 50.82 57.93 60.04 61.58 63.77 64.96 67.39 68.63 68.89 69.48 69.91 70.24 70.81 70.80 70.93 71.03 70.65 70.07 69.37 69.21 67.93 67.16 65.56 64.73 63.82 62.98 62.91 63.03 63.32 63.96 64.09 63.63 63.00 62.27
47.60 44.29 37.21 37.52 35.78 36.41 43.41 46.14 47.43 47.06 44.12 48.08 50.41 43.94 43.74 51.70 56.89 59.12 60.64 61.93 63.80 65.80 67.42 67.85 68.63 68.88 69.60 69.58 69.40 69.27 69.25 68.83 68.58 67.95 66.99 65.74 65.01 64.71 64.16 63.56 62.47 62.20 62.66 62.72 63.33 63.30 62.63 62.06 61.49
46.06 40.98 36.03 36.17 37.39 38.68 43.45 43.24 48.30 49.39 45.04 47.02 48.06 49.74 50.24 54.30 57.18 57.26 57.25 58.86 61.45 63.58 66.14 66.43 67.65 68.38 68.95 68.87 68.29 68.16 67.59 67.25 66.79 66.08 64.59 63.44 60.99 60.31 60.01 60.85 62.06 61.94 61.84 61.79 62.69 62.41 61.63 60.67 60.12
40.42 36.63 39.00 44.09 44.25 41.68 44.25 44.16 45.39 45.33 45.08 44.52 47.21 50.29 54.17 55.69 56.75 56.29 56.62 57.66 59.01 61.46 64.51 65.88 66.56 67.65 68.37 68.37 67.49 66.67 66.06 65.47 64.25 62.46 60.27 57.73 56.84 57.23 58.10 59.63 60.86 61.66 61.89 62.21 62.03 61.54 60.40 54.91 51.90
40.47 35.22 41.62 43.59 46.50 46.98 45.97 45.69 47.67 45.15 43.34 46.41 45.84 49.78 53.22 54.29 56.02 55.99 56.26 57.70 58.68 60.60 63.70 65.67 66.30 67.21 67.64 67.05 66.16 65.43 64.55 63.30 61.20 58.43 57.36 56.18 56.82 57.35 56.48 56.77 55.37 54.38 55.90 52.48 52.74 47.73 46.24 45.66 46.04
30.81 35.64 36.09 37.31 45.36 46.44 44.70 46.92 46.09 46.52 46.61 49.66 49.67 51.30 52.86 54.40 55.13 55.91 55.96 56.23 56.89 58.70 62.63 65.18 66.21 66.65 67.02 66.16 64.85 64.12 62.59 59.75 58.68 57.02 55.89 55.06 54.67 53.94 51.73 49.34 45.80 43.64 42.55 41.17 39.41 40.60 40.25 42.83 44.11
30.02 30.85 34.11 37.93 38.18 43.10 46.36 45.36 44.87 46.02 49.41 49.68 50.87 50.79 52.33 53.63 54.73 56.53 57.55 58.14 57.81 58.30 60.41 64.19 66.07 66.31 66.43 64.73 63.97 62.54 60.31 59.14 57.50 55.66 55.25 55.15 53.57 52.17 49.72 44.95 42.57 38.93 39.17 38.09 37.23 37.57 39.92 41.60 42.41
30.82 31.21 32.09 34.27 34.25 37.65 38.16 44.00 46.33 47.48 50.54 48.73 49.03 48.75 51.90 53.73 54.72 56.07 57.21 57.67 58.62 58.89 59.07 61.65 63.69 64.97 65.16 63.82 62.29 60.88 59.73 57.92 55.66 54.96 54.04 53.08 52.49 50.30 47.97 43.37 40.24 37.26 37.14 36.13 35.98 37.01 37.36 38.29 40.70
32.70 28.60 30.69 32.76 33.94 35.11 39.73 39.72 42.99 48.30 49.85 49.00 48.60 49.22 50.80 53.08 54.76 55.38 57.29 57.81 59.02 59.94 60.44 61.64 63.42 64.30 63.79 62.49 60.83 59.96 58.90 56.08 55.01 54.12 52.09 51.26 50.38 48.67 45.96 42.39 39.25 36.73 36.88 36.31 35.81 34.80 36.35 35.90 37.81
26.34 27.02 20.44 29.06 34.79 35.45 36.86 32.79 43.51 48.73 47.47 47.24 48.59 49.52 50.70 52.17 53.79 55.41 57.04 58.43 60.13 60.38 60.66 61.54 62.02 61.12 62.13 60.41 60.11 58.96 56.29 56.29 54.77 52.64 50.79 49.87 48.22 46.30 44.22 41.24 38.46 36.86 36.49 36.71 36.33 35.83 34.37 34.29 34.59
22.87 16.75 19.00 24.51 33.07 33.63 34.84 34.11 41.32 47.48 47.04 46.59 48.10 49.55 50.46 51.53 52.69 54.58 57.38 58.95 60.34 60.90 61.20 60.99 61.27 59.92 60.56 60.45 59.56 57.98 56.26 55.07 53.83 51.93 50.31 48.70 46.62 44.90 43.02 40.63 37.54 37.01 36.86 36.33 37.03 33.98 33.95 33.97 32.64
16.23 18.62 21.61 21.19 29.93 33.04 32.42 34.53 40.25 44.83 46.67 46.13 46.89 48.88 49.58 50.66 52.70 55.74 57.49 59.17 59.98 60.73 61.45 60.96 61.09 60.63 59.75 59.20 58.57 56.63 55.33 53.93 52.39 50.74 49.89 47.73 45.38 43.06 41.28 39.12 37.50 37.51 36.63 35.82 35.23 33.92 33.46 32.67 33.08
22.40 21.55 20.20 23.70 29.82 30.05 31.61 32.79 37.43 41.63 45.14 45.39 46.77 47.40 48.26 50.08 53.03 55.62 57.44 58.78 59.16 60.24 60.28 60.02 59.39 58.98 58.32 56.41 54.95 53.56 50.97 50.36 50.45 49.95 48.20 47.46 44.33 42.01 40.28 39.13 37.79 37.49 37.15 36.30 35.14 34.16 33.60 31.99 31.58
22.67 21.36 20.25 23.87 28.50 28.18 29.12 30.60 34.78 40.24 43.35 44.97 45.89 47.91 47.54 49.51 51.63 54.07 56.12 57.60 58.30 59.25 59.65 59.07 58.37 58.38 58.15 56.47 55.69 54.88 51.65 51.10 49.91 49.13 47.35 46.86 43.65 41.67 40.39 39.24 38.01 37.64 35.73 34.89 35.17 34.25 32.92 31.43 31.60
19.98 20.42 19.91 19.98 26.35 30.06 29.38 27.78 33.66 38.13 42.66 45.29 46.31 47.08 48.95 49.05 50.39 52.21 54.49 56.87 58.12 58.23 59.09 58.93 58.14 57.82 57.59 56.96 55.68 52.81 51.09 49.93 47.83 46.67 46.27 44.21 43.60 41.73 40.93 39.81 38.76 37.47 36.79 35.50 35.51 34.74 34.03 31.50 30.74
15.26 23.34 23.25 22.06 21.35 15.97 30.02 16.02 30.77 35.52 38.35 41.95 44.22 46.24 46.68 48.83 50.29 51.95 53.46 55.51 56.93 58.06 58.89 59.50 58.81 57.85 58.05 56.55 54.35 51.65 49.93 48.66 49.30 47.13 47.75 44.55 43.42 41.82 40.71 39.91 38.96 37.75 37.22 36.30 35.80 35.66 33.37 33.12 30.82
18.25 26.48 23.65 23.32 21.34 20.40 25.25 18.72 27.54 35.81 35.92 40.13 42.60 44.87 46.76 48.00 48.12 49.92 52.65 54.55 56.31 57.65 58.39 59.02 58.83 57.81 56.36 55.55 54.23 52.74 51.13 51.39 48.71 48.10 46.40 44.38 42.55 41.98 40.70 39.94 38.65 37.73 37.40 36.60 35.54 34.36 33.71 33.45 31.83
26.66 27.25 25.89 25.42 21.77 14.90 21.22 20.67 24.45 29.45 29.36 32.47 43.36 44.59 45.99 45.82 41.50 49.01 52.46 54.10 55.00 56.83 57.55 58.49 58.29 56.25 55.03 54.82 53.40 53.39 50.99 49.40 47.73 47.01 44.82 43.35 41.68 40.96 40.53 40.02 39.13 38.48 37.66 35.68 35.31 35.71 33.02 32.00 31.46
26.25 22.34 14.66 13.04 13.35 10.91 24.28 24.67 19.04 22.65 24.93 27.99 35.76 41.05 33.31 36.00 36.69 37.33 44.10 52.46 54.03 54.91 56.30 57.26 58.02 55.57 54.60 53.61 51.72 51.87 50.83 49.61 48.34 46.95 45.42 43.54 41.76 41.08 40.29 39.87 38.73 38.15 37.99 36.77 36.32 35.07 34.28 32.16 30.67
22.46 17.35 8.57 2.26 4.27 12.08 25.35 20.06 16.30 23.45 23.90 25.76 27.62 28.59 29.16 30.00 31.89 31.76 32.72 34.59 36.80 43.80 54.81 56.02 57.10 55.73 54.54 53.83 51.88 52.27 51.06 50.16 49.58 48.29 47.18 45.17 44.18 44.76 41.97 40.46 39.54 38.78 37.96 36.94 36.25 35.26 33.60 31.99 31.32
25.84 19.97 24.46 14.98 10.88 13.90 19.23 18.89 21.88 20.68 21.43 21.34 22.12 23.66 24.63 26.11 27.11 28.61 29.82 30.29 31.72 35.68 38.86 51.72 56.53 56.58 55.17 54.33 52.50 52.22 51.15 50.70 49.59 48.49 48.56 46.95 46.31 45.22 41.46 40.70 39.38 38.45 37.45 36.22 34.66 34.31 33.41 32.57 32.01
22.07 25.28 16.09 21.08 5.94 7.57 17.70 14.16 10.34 12.71 15.49 18.04 18.31 19.61 21.38 24.14 25.55 26.70 27.50 27.95 29.88 32.73 35.92 39.73 46.57 56.82 56.02 54.83 53.10 52.21 52.06 50.90 49.12 48.05 47.77 46.31 44.69 43.27 41.98 40.58 40.17 38.81 37.53 36.05 35.02 34.37 32.61 32.71 31.84
12.91 11.46 12.56 15.72 22.17 9.34 10.57 7.76 15.88 13.73 15.77 15.16 17.31 19.14 20.09 21.65 23.41 24.63 25.96 27.46 29.00 31.37 32.87 35.20 37.73 43.31 56.18 55.68 54.19 51.76 51.73 51.55 49.66 46.59 46.37 45.93 43.77 42.53 40.63 40.77 39.47 38.36 37.73 36.49 35.52 34.54 32.64 32.96 31.11
13.96 8.83 10.68 9.03 14.75 15.40 12.53 4.30 14.67 14.59 16.60 16.94 16.13 18.34 19.62 21.17 21.93 23.04 24.02 25.71 27.10 28.17 29.93 31.35 33.71 35.76 38.89 44.00 55.65 52.59 51.81 51.70 49.64 46.19 45.61 45.28 43.57 41.96 41.64 40.64 39.29 38.46 37.57 36.70 36.38 33.79 33.54 33.40 31.25
MSLP
1011.18 1011.43 1012.61 1012.94 1013.29 1011.60 1008.41 1008.37 1009.17 1009.24 1009.61 1009.26 1009.20 1009.49 1009.36 1009.21 1009.19 1009.14 1008.41 1008.30 1007.64 1008.36 1009.06 1009.62 1010.33 1010.86 1011.18 1011.91 1011.87 1012.58 1012.96 1013.47 1013.86 1014.13 1014.62 1014.82 1015.37 1016.04 1016.64 1017.01 1017.48 1017.58 1017.54 1017.78 1017.89 1018.36 1018.68 1018.98 1019.25
1011.17 1011.87 1012.79 1012.79 1011.63 1009.43 1005.08 1007.40 1007.70 1008.38 1008.66 1008.52 1008.83 1009.01 1009.22 1008.66 1008.30 1008.30 1008.16 1008.13 1008.02 1008.03 1008.46 1009.31 1010.11 1010.83 1011.23 1011.83 1012.05 1012.53 1013.07 1013.43 1013.94 1014.37 1014.70 1015.17 1015.53 1016.36 1016.69 1017.25 1017.81 1017.96 1017.92 1018.06 1018.19 1018.74 1018.95 1019.34 1019.75
1010.80 1011.60 1012.31 1011.67 1010.11 1007.09 1002.73 1005.65 1006.76 1007.89 1008.10 1008.36 1008.57 1008.68 1008.65 1008.10 1007.93 1007.99 1007.48 1007.77 1008.20 1008.10 1008.56 1009.08 1009.82 1010.54 1011.16 1011.58 1011.99 1012.52 1013.01 1013.58 1013.99 1014.63 1014.94 1015.41 1015.72 1016.42 1016.93 1017.51 1018.03 1018.40 1018.38 1018.49 1018.64 1019.02 1019.32 1019.58 1020.23
1010.56 1012.01 1011.74 1010.20 1007.03 1003.15 1004.92 1004.87 1005.68 1006.85 1007.74 1008.00 1008.26 1008.65 1007.98 1007.21 1007.33 1007.24 1007.19 1007.65 1008.19 1008.42 1008.52 1009.03 1009.53 1010.46 1010.96 1011.50 1011.99 1012.44 1012.95 1013.52 1014.01 1014.73 1015.24 1015.73 1015.91 1016.44 1016.98 1017.84 1018.31 1018.74 1018.66 1018.77 1019.09 1019.32 1019.78 1020.18 1020.58
1010.12 1010.42 1009.98 1008.05 1005.60 1004.05 1005.34 1005.57 1005.51 1006.10 1006.75 1007.46 1007.93 1007.84 1007.59 1007.16 1007.11 1007.28 1007.31 1007.63 1008.02 1008.48 1008.41 1008.95 1009.42 1010.07 1010.78 1011.29 1011.90 1012.52 1012.87 1013.53 1013.85 1014.69 1015.34 1016.01 1016.24 1016.66 1017.14 1018.02 1018.52 1018.89 1018.85 1018.94 1019.42 1019.74 1020.32 1020.57 1020.96
1008.83 1008.85 1008.16 1006.55 1004.20 1003.78 1004.57 1005.28 1005.57 1005.65 1005.92 1006.80 1007.37 1007.42 1007.33 1006.95 1007.20 1007.19 1007.66 1007.74 1007.78 1007.95 1008.53 1008.50 1009.08 1009.80 1010.44 1011.02 1011.64 1012.43 1012.97 1013.34 1013.85 1014.76 1015.45 1015.98 1016.63 1016.94 1017.41 1018.02 1018.74 1019.03 1019.02 1019.05 1019.64 1020.12 1020.71 1021.11 1021.45
1007.52 1007.07 1006.00 1005.45 1004.61 1003.77 1004.03 1004.86 1005.08 1005.72 1005.94 1005.68 1006.34 1007.01 1007.14 1007.13 1006.74 1006.87 1007.27 1007.71 1007.93 1007.98 1008.19 1008.42 1008.56 1009.59 1010.15 1010.66 1011.48 1012.27 1013.02 1013.32 1014.06 1014.81 1015.46 1016.08 1016.77 1017.36 1017.65 1018.05 1018.86 1019.25 1019.23 1019.20 1019.89 1020.41 1020.91 1021.52 1022.06
1007.07 1006.51 1005.66 1005.02 1004.30 1002.15 1003.91 1004.35 1004.65 1004.77 1005.48 1005.91 1006.33 1006.12 1006.61 1006.39 1006.45 1007.12 1007.37 1007.59 1007.87 1007.95 1007.99 1008.22 1008.44 1009.31 1009.92 1010.51 1011.38 1012.19 1012.86 1013.37 1014.25 1014.88 1015.55 1016.27 1017.05 1017.73 1017.82 1018.18 1018.99 1019.54 1019.40 1019.53 1020.17 1020.72 1021.27 1021.78 1022.40
1007.35 1005.06 1004.14 1003.65 1003.08 1002.60 1003.30 1003.73 1003.73 1004.42 1005.19 1005.50 1005.62 1005.37 1005.30 1005.53 1006.36 1007.21 1007.61 1007.78 1008.07 1007.93 1007.55 1008.24 1008.07 1009.11 1009.75 1010.11 1011.24 1012.10 1012.75 1013.39 1014.44 1015.16 1015.86 1016.57 1017.14 1018.16 1018.57 1018.24 1019.24 1019.61 1019.97 1019.74 1020.38 1021.17 1021.46 1022.13 1022.83
1007.72 1005.54 1002.93 1002.39 1002.45 1002.72 1003.13 1002.91 1003.49 1004.32 1004.63 1005.04 1005.27 1005.21 1005.44 1005.67 1006.26 1006.81 1007.28 1007.41 1007.63 1007.69 1007.70 1008.03 1008.18 1009.00 1009.32 1009.62 1010.84 1011.95 1012.70 1013.52 1014.56 1015.36 1016.14 1017.00 1017.57 1018.28 1018.74 1018.53 1019.67 1019.87 1020.31 1020.19 1020.71 1021.47 1022.03 1022.71 1023.37
1006.65 1005.99 1004.85 1002.53 1002.81 1002.75 1002.48 1002.69 1002.69 1003.08 1003.74 1002.61 1003.51 1004.76 1005.16 1005.55 1005.74 1006.08 1006.38 1006.52 1006.55 1007.09 1007.37 1007.44 1007.76 1008.48 1009.07 1008.10 1009.83 1011.57 1012.74 1013.55 1014.73 1015.47 1016.29 1017.11 1017.91 1018.30 1018.97 1018.97 1019.87 1020.40 1020.73 1020.84 1021.45 1022.42 1023.20 1023.43 1023.85
1008.75 1006.14 1006.15 1004.74 1003.88 1002.80 1002.18 1002.32 1001.72 1001.88 1000.51 1001.70 1003.03 1003.84 1004.33 1004.82 1005.09 1005.43 1005.80 1006.28 1006.58 1006.56 1006.92 1007.05 1007.39 1007.94 1009.05 1008.35 1009.30 1011.07 1012.39 1013.61 1014.67 1015.26 1016.24 1017.09 1017.97 1018.46 1019.15 1019.80 1020.32 1021.15 1021.54 1022.03 1022.50 1023.21 1023.82 1024.21 1024.37
1008.82 1008.02 1007.38 1006.58 1005.75 1003.63 1002.98 1002.17 1001.06 1000.50 1001.09 1001.54 1002.06 1002.79 1003.76 1004.32 1004.50 1004.77 1005.03 1005.43 1005.98 1006.32 1006.39 1006.88 1007.29 1007.91 1008.84 1008.95 1009.70 1010.93 1012.35 1013.29 1014.24 1015.12 1016.13 1016.95 1017.67 1018.45 1019.25 1020.11 1020.57 1021.57 1022.02 1022.72 1023.23 1023.68 1024.29 1024.53 1025.07
1008.79 1007.99 1006.80 1006.31 1006.03 1005.21 1004.25 1002.03 1002.28 1000.19 1000.57 1001.31 1001.67 1002.12 1002.92 1003.48 1003.73 1004.23 1004.62 1004.93 1005.35 1005.81 1006.31 1006.97 1007.35 1007.93 1009.06 1008.28 1009.23 1010.67 1011.95 1013.16 1014.30 1014.94 1016.06 1016.91 1017.57 1018.34 1019.40 1020.08 1020.92 1021.73 1022.35 1023.30 1023.58 1023.66 1024.49 1025.33 1025.42
1008.87 1008.07 1007.02 1005.69 1005.24 1005.26 1004.60 1001.87 999.44 1000.06 1000.72 1000.79 1001.10 1001.55 1002.06 1002.51 1003.09 1003.19 1003.62 1004.03 1004.34 1004.78 1005.68 1006.52 1007.16 1007.41 1008.38 1007.50 1009.17 1010.46 1011.57 1013.03 1014.01 1014.94 1015.96 1016.80 1017.59 1018.40 1019.28 1020.00 1021.03 1022.00 1022.58 1023.50 1023.99 1024.30 1024.38 1025.64 1025.88
1009.14 1008.43 1006.70 1005.20 1004.69 1004.51 1005.41 1001.73 999.43 999.63 1000.47 1000.91 1000.95 1001.17 1001.57 1001.95 1002.30 1002.50 1002.89 1003.32 1003.77 1004.55 1005.10 1005.96 1006.67 1007.41 1008.22 1007.78 1008.92 1010.44 1011.74 1012.63 1013.89 1015.03 1015.96 1016.71 1017.55 1018.56 1019.25 1019.93 1020.90 1021.95 1022.73 1023.39 1023.99 1024.53 1025.22 1025.84 1026.39
1008.93 1007.80 1006.81 1005.07 1004.44 1004.82 1004.01 1001.84 1000.39 999.57 1000.21 1000.51 1001.05 1001.21 1001.12 1001.50 1002.00 1002.24 1002.50 1002.91 1003.29 1004.08 1004.72 1005.41 1006.18 1007.07 1008.12 1009.13 1008.91 1010.41 1011.47 1012.14 1013.57 1014.82 1015.93 1016.53 1017.74 1018.49 1019.16 1019.87 1021.18 1021.87 1022.58 1023.35 1023.89 1024.69 1025.27 1026.16 1026.96
1008.18 1007.61 1006.53 1005.22 1003.92 1003.28 1003.27 1001.30 1000.82 999.99 1000.02 1000.01 1000.82 1000.97 1000.91 1001.21 1001.48 1001.75 1002.13 1002.58 1003.09 1003.91 1004.66 1005.37 1006.09 1006.84 1007.54 1009.12 1008.96 1010.38 1011.15 1011.91 1013.44 1014.51 1015.62 1016.76 1017.63 1018.24 1019.05 1020.11 1021.30 1021.84 1022.57 1023.34 1024.08 1024.77 1025.55 1026.12 1026.86
1008.38 1007.46 1006.56 1005.53 1004.65 1003.26 1002.23 1000.91 1000.81 1000.45 999.71 999.78 1000.27 1000.48 1000.56 1000.87 1001.27 1001.49 1001.82 1002.13 1003.17 1003.58 1004.69 1005.50 1005.84 1006.64 1007.70 1008.95 1009.25 1010.61 1011.02 1012.08 1013.17 1014.67 1015.60 1016.50 1017.40 1018.15 1018.96 1019.91 1021.07 1021.86 1022.37 1023.13 1023.84 1024.99 1025.65 1026.58 1026.96
1007.46 1006.84 1005.95 1005.27 1004.56 1003.58 1002.25 1000.94 1000.71 1000.06 999.22 999.50 1000.04 1000.20 1000.65 1001.27 1001.30 1001.47 1001.52 1002.33 1002.89 1003.99 1004.61 1005.04 1005.76 1006.62 1007.43 1008.24 1009.14 1010.10 1010.33 1012.14 1011.97 1014.48 1016.03 1016.62 1017.26 1017.88 1018.64 1019.46 1020.74 1021.39 1022.55 1023.29 1023.83 1024.52 1025.62 1026.27 1026.46
1006.65 1006.37 1005.52 1005.19 1003.93 1002.63 1001.91 1000.74 1000.25 999.44 999.08 999.22 999.92 1000.46 1000.55 1001.08 1001.35 1001.28 1001.72 1002.19 1002.41 1002.91 1004.18 1004.85 1005.51 1006.18 1007.06 1008.00 1009.19 1009.88 1010.99 1012.58 1012.74 1014.99 1015.88 1016.46 1017.28 1017.76 1018.22 1019.22 1020.13 1021.05 1021.92 1022.83 1023.47 1024.07 1024.71 1025.59 1026.39
1005.88 1005.36 1005.21 1005.06 1004.56 1002.63 1001.25 1000.32 999.61 999.28 998.79 999.10 999.50 1000.53 1001.18 1001.03 1001.49 1001.65 1001.68 1002.11 1002.32 1002.69 1003.71 1004.73 1005.52 1006.05 1006.92 1007.76 1008.40 1009.10 1010.43 1011.81 1012.46 1014.06 1015.43 1016.28 1017.10 1017.37 1018.06 1018.97 1019.72 1020.59 1021.49 1022.25 1022.94 1023.82 1024.52 1024.80 1025.83
1004.14 1004.30 1003.79 1003.69 1003.57 1002.84 1001.21 1001.07 999.22 998.91 999.53 999.26 999.77 999.87 1000.63 1001.78 1001.54 1001.65 1001.95 1001.81 1002.06 1002.77 1003.74 1004.83 1005.55 1006.06 1006.85 1007.52 1008.01 1008.94 1010.08 1011.21 1012.49 1014.02 1015.25 1015.96 1016.79 1017.36 1018.10 1018.59 1019.26 1020.38 1021.17 1021.91 1022.67 1023.49 1024.19 1024.46 1025.27
1003.97 1003.31 1003.19 1003.48 1003.70 1003.21 1001.83 1001.76 1001.11 1001.72 1002.31 1001.34 1000.01 999.80 1000.60 1001.71 1002.69 1001.99 1001.90 1002.34 1002.94 1002.96 1003.94 1004.93 1005.35 1005.83 1006.62 1007.59 1008.29 1008.78 1009.44 1010.51 1012.11 1013.30 1014.67 1015.58 1016.47 1017.39 1017.89 1018.30 1018.92 1019.65 1020.53 1021.16 1022.14 1022.86 1023.58 1024.15 1024.64
1003.14 1003.02 1003.15 1003.52 1003.20 1002.28 1001.60 1002.91 1004.69 1005.01 1005.02 1003.88 1001.87 1001.73 1003.08 1003.28 1003.50 1003.55 1003.04 1002.97 1002.96 1003.36 1003.80 1004.39 1005.01 1005.66 1006.36 1007.34 1008.12 1008.76 1009.11 1010.00 1010.87 1012.11 1013.40 1014.83 1016.24 1016.91 1017.18 1017.78 1018.50 1019.10 1019.67 1020.69 1021.58 1022.59 1023.00 1023.97 1024.22
1003.29 1002.72 1002.23 1002.75 1002.78 1002.37 1002.39 1004.33 1006.83 1007.44 1007.21 1006.61 1005.76 1005.16 1005.35 1005.30 1005.32 1005.42 1005.81 1005.39 1004.77 1004.23 1003.98 1004.28 1004.72 1005.13 1005.90 1006.90 1007.63 1008.26 1009.23 1009.90 1010.51 1011.38 1012.58 1014.15 1014.75 1015.43 1016.33 1017.06 1017.97 1018.59 1019.39 1020.23 1020.92 1021.83 1022.58 1023.41 1023.96
1003.13 1003.05 1002.18 1002.44 1002.53 1003.17 1004.07 1006.58 1007.80 1009.21 1008.88 1008.99 1008.75 1008.33 1007.87 1008.00 1008.06 1007.22 1007.07 1006.89 1005.98 1005.32 1004.99 1004.17 1004.12 1004.74 1005.61 1006.08 1007.09 1007.93 1008.63 1009.52 1010.24 1011.27 1012.10 1013.41 1014.09 1014.98 1015.91 1016.41 1017.37 1018.32 1019.15 1019.73 1020.69 1021.45 1021.89 1022.92 1023.37
1005.51 1004.62 1004.06 1003.39 1003.48 1004.01 1005.03 1007.44 1010.08 1010.92 1011.29 1011.05 1010.66 1010.50 1010.15 1010.00 1009.40 1008.72 1008.93 1008.16 1007.57 1006.78 1006.13 1005.46 1005.04 1004.58 1005.21 1005.93 1006.83 1007.26 1008.17 1009.35 1010.07 1010.97 1011.87 1012.84 1013.63 1014.37 1015.37 1015.93 1016.84 1017.92 1018.70 1019.50 1020.24 1020.90 1021.52 1022.43 1022.70
1008.15 1007.64 1007.24 1005.96 1004.31 1004.10 1006.49 1010.42 1012.44 1013.18 1013.43 1013.41 1013.47 1013.13 1012.27 1011.93 1011.41 1010.80 1010.32 1009.12 1008.70 1008.08 1007.46 1006.83 1006.43 1005.99 1005.20 1005.69 1006.47 1007.06 1007.91 1008.82 1009.42 1010.27 1011.31 1012.20 1013.01 1013.86 1014.49 1015.42 1016.34 1017.39 1018.08 1018.82 1019.57 1020.34 1021.16 1021.38 1022.25
1011.46 1011.81 1010.54 1008.89 1007.15 1007.06 1008.27 1012.86 1014.49 1015.00 1014.99 1015.10 1015.26 1014.44 1013.70 1013.47 1013.25 1012.35 1011.52 1010.13 1009.93 1009.36 1009.00 1008.16 1007.81 1007.44 1006.97 1006.53 1006.13 1007.05 1006.71 1007.88 1008.94 1010.08 1011.05 1011.93 1012.64 1013.54 1014.37 1015.23 1016.02 1016.61 1017.19 1018.08 1018.92 1019.70 1020.09 1020.61 1021.77
Wind_Speed
18 5 3 1 4 7 22 16 6 8 6 5 5 6 9 9 6 7 4 6 8 14 14 14 22 22 24 22 24 23 22 21 21 22 23 23 22 21 19 18 17 17 19 18 19 18 16 17 17
6 4 2 2 11 15 26 21 18 11 8 8 8 5 4 11 2 1 1 7 5 13 16 14 22 22 23 23 23 22 22 22 22 21 22 22 23 21 19 18 17 17 19 19 19 19 18 18 18
10 9 4 6 12 28 31 17 17 10 8 7 7 2 7 5 3 7 5 7 6 13 14 13 22 23 22 23 24 23 23 22 22 21 21 22 23 21 20 18 18 17 18 19 20 20 19 19 19
7 3 4 12 27 42 25 13 19 15 6 5 6 6 2 5 7 8 7 9 7 11 12 14 22 22 22 23 24 24 24 24 23 21 21 22 23 22 21 18 18 17 19 20 20 21 20 19 19
6 4 13 18 36 34 14 10 17 17 11 9 8 6 3 3 2 6 7 9 12 10 14 13 21 24 24 24 23 24 25 25 24 22 22 21 22 22 21 20 19 19 20 21 20 21 20 19 19
9 8 11 27 38 36 22 12 11 16 15 8 7 5 6 3 8 8 7 9 10 14 13 15 23 24 25 24 24 24 24 25 24 22 22 23 21 21 22 21 19 20 21 22 21 21 20 19 19
14 14 27 26 33 33 24 18 18 13 10 19 4 8 4 2 9 8 8 7 6 10 13 12 17 21 26 26 25 24 24 24 23 22 21 20 20 21 22 21 20 20 21 22 22 21 21 20 19
5 17 32 26 24 39 18 21 10 20 12 5 9 11 8 7 10 6 6 6 6 8 12 13 13 16 17 17 24 25 24 24 23 22 21 19 19 19 21 20 20 19 22 22 23 22 21 21 20
10 11 26 36 35 21 10 17 20 9 9 12 9 7 5 8 9 6 4 4 4 6 9 10 13 12 16 18 17 21 23 24 21 18 19 17 10 9 11 14 18 19 20 22 23 21 22 21 20
11 18 22 32 26 27 15 15 16 9 13 12 5 1 4 7 12 13 12 11 10 10 8 11 14 16 16 16 17 15 15 14 12 12 12 7 7 8 9 13 16 18 18 20 23 22 21 12 5
7 9 21 28 15 14 25 26 12 17 18 24 24 10 10 7 11 15 16 14 15 11 11 13 13 16 13 16 13 9 8 9 8 12 10 9 8 8 6 7 6 5 8 5 8 10 5 7 6
10 14 14 17 25 14 23 24 20 20 27 16 18 19 16 15 15 15 15 14 11 9 10 13 14 15 15 8 12 12 10 9 9 10 13 10 7 8 6 5 5 5 4 7 6 5 6 7 8
14 20 17 16 18 23 20 20 30 26 23 10 20 20 17 16 17 15 15 15 13 12 11 13 16 16 16 16 12 12 12 11 11 11 11 10 10 9 7 6 6 5 5 6 6 6 6 7 7
8 17 21 18 17 14 19 17 23 21 13 14 15 19 19 19 19 15 14 14 14 13 11 10 10 10 12 18 18 14 12 12 11 10 11 11 10 9 8 8 7 6 5 4 5 7 6 5 6
15 21 18 19 13 8 17 21 28 22 8 18 19 15 18 20 17 18 17 17 16 12 12 12 10 13 16 19 16 12 12 12 11 10 12 12 11 10 10 8 7 6 5 7 6 6 7 6 5
11 12 12 8 13 8 10 19 20 14 21 13 14 15 15 18 19 18 14 15 13 11 12 14 11 9 4 15 13 11 11 12 11 10 10 13 12 11 10 9 8 7 7 6 6 6 6 5 5
8 13 9 13 15 12 17 10 15 8 15 21 12 14 13 14 13 12 11 11 11 14 13 13 14 15 13 9 15 13 15 12 11 11 10 13 12 12 10 9 7 8 7 6 7 3 5 5 4
8 10 8 9 5 11 20 19 11 8 17 21 15 15 12 13 14 14 12 10 9 10 12 13 13 16 14 8 10 10 10 9 9 10 10 13 10 12 11 8 9 7 7 7 5 5 4 4 5
18 17 13 9 10 13 16 18 13 18 11 7 10 13 13 13 9 10 12 9 12 9 11 11 14 15 13 10 9 7 9 10 10 7 12 13 12 13 12 9 10 7 8 8 9 5 7 3 3
18 16 16 12 13 16 16 19 22 17 15 14 9 8 6 5 9 10 11 13 15 14 13 14 15 16 14 11 9 7 11 6 10 7 8 9 12 13 12 12 10 10 7 8 9 7 4 3 4
18 16 16 11 13 12 10 16 16 19 15 13 15 14 5 9 11 11 12 13 12 13 14 14 16 17 14 13 9 9 10 6 7 7 7 8 12 12 12 12 11 10 9 8 9 8 5 5 3
19 15 17 16 12 8 11 6 15 17 18 16 17 10 5 3 8 9 13 14 14 12 12 11 13 16 13 16 13 19 10 11 7 9 8 9 11 13 12 12 12 11 8 9 8 5 3 5 5
15 13 23 20 19 4 4 2 4 20 16 18 23 19 17 8 3 10 14 18 17 15 13 12 13 14 13 13 15 13 13 10 9 9 11 9 8 10 11 12 13 11 8 9 9 8 6 3 5
12 9 7 8 5 6 11 5 8 1 6 8 14 16 18 7 9 7 12 8 7 10 13 12 14 14 14 12 11 15 18 15 13 11 10 8 8 8 10 11 11 11 11 11 10 8 7 6 4
13 7 3 6 6 5 12 7 6 9 13 14 13 11 11 10 12 13 11 8 10 12 13 13 14 15 17 15 13 11 12 16 19 16 12 12 8 7 12 13 12 11 11 11 10 9 8 7 5
4 4 7 6 5 6 9 6 5 9 13 16 17 15 14 14 12 14 12 10 9 6 11 12 14 15 18 16 15 13 13 9 10 13 12 11 12 13 12 12 12 12 12 11 10 8 7 6 6
2 5 3 3 1 4 6 6 8 14 17 18 17 16 17 15 12 13 12 13 12 10 10 6 13 13 15 16 13 13 12 12 10 13 11 10 9 9 12 13 12 10 11 10 10 8 9 8 7
5 7 1 1 6 4 5 5 4 13 16 16 19 17 16 14 14 14 12 12 12 11 10 10 9 15 15 15 13 12 14 13 11 11 12 12 11 11 12 13 12 11 11 11 11 7 6 9 5
12 8 6 4 4 5 6 4 8 10 12 13 13 14 14 14 13 12 11 12 12 12 12 12 12 11 9 16 15 16 13 12 11 11 11 11 9 11 12 13 13 14 13 11 10 9 9 11 8
16 7 6 3 6 4 4 4 9 10 12 12 12 12 13 12 12 12 12 13 13 13 12 12 12 11 10 9 9 12 14 14 13 11 12 12 12 11 13 13 12 12 13 13 14 12 11 12 12
Wind_Direction
247 251 107 156 199 231 242 231 139 168 160 204 162 171 194 181 173 211 325 226 151 154 166 176 171 167 159 158 149 152 148 148 145 143 141 134 128 130 136 128 126 124 122 123 122 118 112 112 107
231 117 144 223 226 221 239 216 207 187 194 190 209 151 160 222 201 179 119 223 187 155 164 170 173 168 162 159 153 152 149 147 146 144 140 136 136 137 135 131 129 127 126 126 125 119 123 126 111
197 187 188 208 232 227 235 194 189 190 187 176 173 189 185 212 207 179 205 162 170 158 166 166 170 169 166 161 157 154 150 148 144 143 140 143 138 141 136 133 130 129 127 129 126 123 110 118 112
200 174 252 224 225 240 235 194 186 177 215 210 157 195 198 208 161 196 158 150 155 165 166 169 169 173 167 164 162 157 153 150 146 141 145 148 143 142 135 135 132 134 132 133 131 125 123 120 119
182 178 226 221 237 244 230 214 179 186 170 169 170 203 239 242 95 138 160 162 169 185 173 173 175 174 168 166 163 160 155 149 140 147 148 150 146 141 136 136 136 138 136 134 134 124 122 123 119
205 190 211 227 229 238 229 204 187 201 186 172 185 151 226 131 151 189 174 187 184 173 187 178 177 180 172 168 163 160 155 148 143 149 154 149 148 144 138 139 141 141 138 134 132 128 126 121 117
227 201 219 225 235 243 225 217 202 190 201 213 117 213 230 171 219 162 176 174 190 187 179 187 176 182 178 168 162 160 156 147 146 150 155 149 149 145 143 140 143 144 141 136 133 131 126 123 118
251 230 216 227 231 242 222 207 182 203 211 116 157 218 210 219 192 173 156 170 181 191 191 181 174 180 176 165 159 159 153 144 149 154 148 144 142 148 145 139 144 146 143 138 133 132 128 123 122
304 235 229 217 224 226 163 211 213 197 170 192 203 166 196 186 134 151 154 168 202 221 174 189 165 187 174 163 161 157 152 141 151 145 138 137 136 141 136 132 143 145 141 138 132 133 129 122 120
223 247 233 225 229 230 225 199 196 187 202 216 217 156 143 143 164 176 191 193 192 197 186 182 176 182 183 163 156 152 155 146 146 141 129 116 111 127 131 128 140 145 146 136 135 133 123 103 89
227 242 253 248 244 225 230 227 194 201 216 213 210 184 186 181 182 191 194 197 193 194 196 178 170 180 204 163 147 146 155 139 135 131 128 126 129 128 128 129 129 128 108 115 113 98 95 102 102
314 302 317 327 259 261 236 247 216 199 214 193 209 203 191 192 186 195 198 198 191 183 197 189 172 174 174 173 144 151 150 139 146 142 136 136 136 131 125 115 108 96 86 95 94 101 99 91 95
271 274 279 274 308 284 289 243 235 217 219 199 193 199 191 193 198 201 198 199 192 193 183 185 178 185 186 163 154 152 151 151 148 145 143 147 144 142 131 127 112 104 103 112 116 116 113 106 102
276 280 281 279 275 302 283 271 226 244 225 204 199 202 190 194 193 196 202 203 196 188 183 174 176 202 210 162 157 156 154 147 149 147 150 148 145 142 139 130 120 113 116 110 125 125 121 106 110
265 281 278 258 255 268 307 281 231 212 259 235 213 198 195 200 195 195 196 202 199 203 178 162 163 191 173 158 152 150 153 150 151 152 149 143 142 145 145 133 129 128 116 119 113 99 102 109 100
281 274 282 299 221 229 261 250 242 204 215 243 233 204 197 204 200 200 197 203 196 185 175 175 177 135 163 156 151 150 150 153 151 150 148 146 140 143 138 136 134 135 128 130 126 132 103 108 109
223 260 259 290 227 234 210 264 236 220 203 217 247 217 197 205 200 192 188 188 179 176 170 171 169 168 157 215 155 156 161 153 152 147 151 146 145 146 139 137 133 141 135 131 138 98 118 124 108
229 235 261 255 300 219 233 248 253 223 210 209 220 224 203 197 194 178 178 171 168 166 166 168 168 166 150 151 152 151 150 139 142 147 149 149 149 144 137 136 139 140 135 132 117 123 85 119 131
262 262 275 279 265 248 244 248 253 229 212 196 227 244 206 201 183 169 177 164 164 131 148 162 156 154 150 149 143 145 145 136 131 144 143 153 153 150 147 141 145 146 150 146 138 111 125 95 147
253 270 263 265 257 255 248 241 243 246 204 196 225 245 185 191 164 167 170 196 168 164 158 160 158 164 167 156 153 146 135 132 117 133 150 152 156 155 153 149 157 150 134 139 151 144 136 112 193
248 248 247 244 272 236 246 244 223 228 225 193 203 239 299 198 189 175 176 172 172 161 162 164 167 165 162 153 141 114 102 116 106 131 155 157 164 160 155 156 155 153 153 162 165 158 158 139 185
257 242 247 247 241 242 184 252 203 204 208 212 199 191 247 265 189 196 176 177 179 165 162 164 172 168 172 161 155 154 150 163 157 163 168 163 171 165 157 158 157 158 157 162 169 162 162 129 151
257 258 241 214 215 1 268 207 253 184 198 198 205 191 181 214 277 186 193 190 182 159 169 173 171 167 158 171 162 162 160 154 145 152 161 165 165 168 165 162 153 162 165 163 169 160 175 156 145
240 271 166 178 187 228 233 198 190 124 347 322 208 189 201 149 19 234 186 166 187 170 160 170 171 165 159 163 165 175 159 147 154 155 160 164 166 164 172 167 169 168 169 167 176 175 173 168 134
194 179 132 172 198 193 192 224 50 29 5 359 289 150 70 71 60 33 36 153 161 181 181 180 174 167 165 163 162 157 162 159 161 164 162 160 173 181 186 177 174 176 175 170 166 175 176 182 159
271 190 143 171 160 181 118 178 70 38 29 18 32 54 59 52 46 62 23 21 16 5 203 191 190 169 166 169 172 168 165 167 164 169 161 179 187 192 175 178 180 177 174 173 176 183 177 165 166
100 222 172 116 182 78 103 118 74 19 29 20 23 33 43 42 43 46 35 18 13 12 3 256 196 183 176 175 171 173 167 167 168 165 166 180 185 176 171 175 172 172 173 169 171 180 174 177 168
320 353 334 264 131 189 135 77 35 6 9 12 12 14 24 22 26 33 29 23 14 12 6 7 333 186 183 174 176 177 173 174 162 160 170 176 177 164 169 172 174 176 176 176 175 178 166 181 169
352 13 353 278 246 173 144 93 21 14 12 14 3 5 17 15 14 22 16 27 20 17 18 20 20 3 195 178 176 175 172 168 156 162 172 177 164 169 165 178 177 180 181 179 182 186 176 183 167
72 1 330 320 20 32 35 100 15 13 13 22 359 4 12 16 13 14 14 27 19 18 12 21 17 15 358 348 183 178 161 163 162 169 175 171 174 174 181 179 180 183 183 182 190 186 184 184 185